Tracking 30995 objects as of 5-Jul-2025
HD Live streaming from Space Station
objects crossing your sky now

FENGYUN 1C DEB

Track FENGYUN 1C DEB now!
10-day predictions


NORAD ID: 29843
Int'l Code: 1999-025EM
Perigee: 665.5 km
Apogee: 944.0 km
Inclination: 99.0 °
Period: 100.8 minutes
Semi major axis: 7175 km
RCS: 0.054 m2 (small)
Launch date: May 10, 1999
Source: People's Republic of China (PRC)
Launch site: Taiyaun Space Center, China (TSC)

Note: This is SATELLITE DEBRIS
Your satellite tracking list
Your tracking list is empty




NASA's NSSDC Master Catalog

Two Line Element Set (TLE):
1 29843U 99025EM  25186.50209042  .00000316  00000-0  12083-3 0  9992
2 29843  99.0490  18.9502 0194005  34.4892  18.9704 14.28239638959944
Source of the keplerian elements: AFSPC